TimeCDT,TemperatureF,Dew PointF,Humidity,Sea Level PressureIn,VisibilityMPH,Wind Direction,Wind SpeedMPH,Gust SpeedMPH,PrecipitationIn,Events,Conditions,WindDirDegrees,DateUTC
12:53 AM,46.9,36.0,66,30.20,10.0,NNE,3.5,-,N/A,,Clear,30,2012-10-08 05:53:00
1:53 AM,46.9,37.9,71,30.21,10.0,Calm,Calm,-,N/A,,Clear,0,2012-10-08 06:53:00
2:53 AM,46.9,37.0,68,30.21,10.0,Calm,Calm,-,N/A,,Scattered Clouds,0,2012-10-08 07:53:00
3:53 AM,46.9,36.0,66,30.19,10.0,NNE,3.5,-,N/A,,Overcast,30,2012-10-08 08:53:00
4:53 AM,46.9,36.0,66,30.20,10.0,Calm,Calm,-,N/A,,Scattered Clouds,0,2012-10-08 09:53:00
5:53 AM,46.0,39.0,76,30.21,10.0,Calm,Calm,-,N/A,,Partly Cloudy,0,2012-10-08 10:53:00
6:53 AM,46.0,37.0,71,30.21,10.0,Calm,Calm,-,N/A,,Mostly Cloudy,0,2012-10-08 11:53:00
7:53 AM,46.9,37.9,71,30.25,10.0,NNW,3.5,-,N/A,,Overcast,340,2012-10-08 12:53:00
8:53 AM,48.0,37.9,68,30.24,10.0,NE,3.5,-,N/A,,Overcast,50,2012-10-08 13:53:00
9:53 AM,50.0,39.0,66,30.24,10.0,Calm,Calm,-,N/A,,Overcast,0,2012-10-08 14:53:00
10:53 AM,52.0,39.0,61,30.24,10.0,WNW,3.5,-,N/A,,Overcast,300,2012-10-08 15:53:00
11:53 AM,57.0,39.9,53,30.23,10.0,Variable,3.5,-,N/A,,Mostly Cloudy,0,2012-10-08 16:53:00
12:53 PM,59.0,37.0,44,30.21,10.0,Calm,Calm,-,N/A,,Overcast,0,2012-10-08 17:53:00
1:53 PM,60.1,37.9,44,30.19,10.0,Calm,Calm,-,N/A,,Partly Cloudy,0,2012-10-08 18:53:00
2:53 PM,61.0,35.1,38,30.16,10.0,Variable,3.5,-,N/A,,Clear,0,2012-10-08 19:53:00
3:53 PM,60.1,35.1,39,30.14,10.0,Variable,3.5,-,N/A,,Clear,0,2012-10-08 20:53:00
4:53 PM,61.0,34.0,36,30.15,10.0,Calm,Calm,-,N/A,,Clear,0,2012-10-08 21:53:00
5:53 PM,57.0,36.0,45,30.14,10.0,Calm,Calm,-,N/A,,Clear,0,2012-10-08 22:53:00
6:53 PM,53.1,36.0,52,30.15,10.0,Calm,Calm,-,N/A,,Clear,0,2012-10-08 23:53:00
7:53 PM,48.9,39.0,69,30.15,10.0,Calm,Calm,-,N/A,,Clear,0,2012-10-09 00:53:00
8:53 PM,46.9,39.0,74,30.16,10.0,Calm,Calm,-,N/A,,Clear,0,2012-10-09 01:53:00
9:53 PM,45.0,39.0,80,30.17,10.0,Calm,Calm,-,N/A,,Clear,0,2012-10-09 02:53:00
10:53 PM,45.0,39.0,80,30.17,10.0,Calm,Calm,-,N/A,,Clear,0,2012-10-09 03:53:00